Voltar ao catálogo

STARLINK-35930

AtivoComunicaçõesVLEO
NORAD 66599·PAYLOAD·🇺🇸 United States

Lançado Nov 22, 2025 de Cape Canaveral Space Force Station

Loading…

Próximas Passagens (próximas 24 horas)

TLE

AtualizadoSource: CelesTrak SupGP

Época: Sep 15, 2026, 03:27 UTC

1 66599C 25270M   26258.14423611 -.00031675  00000+0 -11471-2 0  2583
2 66599  43.0005  66.1971 0001541 267.2959 356.4939 15.27598386    14

Acompanhe STARLINK-35930 em tempo real com AllMySat

Download on the App Store